[[{"header":{"parameterUnit":"m.s-1","parameterCategory":1,"la1":30.2991,"la2":30.254,"lo1":-89.0895,"lo2":-89.0444,"dy":0.0017,"dx":0.0017,"nx":28,"ny":28,"refTime":"2026-01-02T09:00:00:Z","depth":0,"parameterNumber":2,"parameterNumberName":"U-component_of_WINDS"},"data":[0,0,0,0,0,0,0,0,0,0,0,0,0,0,0,0,0,0,0,0,0,0,0,0,0,0,0,0,0,0,0,0,0,0,0,0,0,0,0,0,0,0,0,0,0,0,0,0,0,0,0,0,0,0,0,0,0,0,-0.4553,-0.4553,0,-0.4543,-0.4543,-0.4543,-0.4573,-0.4574,-0.4575,-0.4576,-0.4559,-0.4558,-0.4556,0,0,0,0,0,0,0,0,0,0,0,0,0,-0.4593,-0.4592,-0.4553,-0.4553,-0.4553,-0.4543,-0.4543,-0.4543,-0.4573,-0.4574,-0.4575,-0.4576,-0.4559,-0.4558,-0.4556,0,0,0,0,0,0,0,0,0,0,0,0,0,-0.4578,-0.4592,-0.4553,-0.4567,-0.4568,-0.4543,-0.4543,-0.4542,-0.4572,-0.4574,-0.4575,-0.4576,-0.456,-0.4558,-0.4556,-0.4515,0,0,-0.455,-0.4549,0,0,0,0,0,0,0,0,-0.4579,-0.4577,-0.4565,-0.4566,-0.4567,-0.4561,-0.4551,-0.4533,-0.4572,-0.457,-0.4576,-0.4577,-0.4558,-0.4556,-0.4551,-0.4515,-0.4514,-0.455,-0.4549,-0.4548,-0.4547,0,0,0,0,0,0,0,-0.458,-0.4578,-0.4549,-0.4565,-0.4566,-0.4572,-0.4571,-0.4548,-0.4556,-0.4571,-0.4573,-0.4572,-0.4559,-0.4553,-0.4551,-0.4514,-0.455,-0.4548,-0.4547,-0.4546,-0.4442,-0.4441,0,0,0,0,0,0,-0.458,-0.4578,-0.4549,-0.4549,-0.4577,-0.457,-0.4569,-0.4561,-0.4557,-0.4557,-0.457,-0.4573,-0.4556,-0.4553,-0.455,-0.4502,-0.4548,-0.4546,-0.4545,-0.4444,-0.4442,-0.444,0,0,0,0,0,0,-0.4581,-0.4577,-0.455,-0.4564,-0.4561,-0.4568,-0.4558,-0.456,-0.4554,-0.4556,-0.4558,-0.4563,-0.4557,-0.4553,-0.4524,-0.4502,-0.4545,-0.4543,-0.4446,-0.4443,-0.4441,-0.4404,0,0,0,0,0,0,-0.4582,-0.4578,-0.4563,-0.4564,-0.456,-0.4525,-0.4557,-0.4559,-0.4552,-0.4555,-0.455,-0.455,-0.4557,-0.4527,-0.4522,-0.45,-0.4542,-0.4448,-0.4445,-0.4442,-0.4408,-0.4401,-0.4396,0,0,0,0,0,-0.4583,-0.4552,-0.4563,-0.4559,-0.4543,-0.4524,-0.4522,-0.4532,-0.455,-0.4535,-0.4536,-0.455,-0.4505,-0.4524,-0.4519,-0.4495,-0.4449,-0.4446,-0.4442,-0.441,-0.4402,-0.4396,0,0,0,0,0,0,-0.4547,-0.4553,-0.4564,-0.4532,-0.4528,-0.4529,-0.451,-0.4523,-0.4512,-0.4515,-0.4527,-0.4526,-0.4494,-0.4492,-0.4512,-0.4455,-0.448,-0.4475,-0.4457,-0.445,-0.4444,-0.4444,-0.454,0,0,0,0,0,-0.4536,-0.4522,-0.4527,-0.4498,-0.4496,-0.4503,-0.4495,-0.4504,-0.4499,-0.4496,-0.4495,-0.4488,-0.4472,-0.4461,-0.4447,-0.4408,-0.4406,-0.4389,-0.4383,-0.4378,-0.4373,-0.4352,-0.4344,-0.4429,-0.4429,-0.4429,0,0,-0.4512,-0.4513,-0.4503,-0.4491,-0.4488,-0.4471,-0.4501,-0.4482,-0.4469,-0.4493,-0.4466,-0.4465,-0.4457,-0.4423,-0.4408,-0.442,-0.435,-0.4374,-0.437,-0.4368,-0.4347,-0.4339,-0.4332,-0.4427,-0.4427,-0.4427,0,0,-0.4459,-0.4459,-0.4435,-0.4433,-0.4429,-0.4434,-0.4429,-0.4428,-0.4429,-0.4402,-0.4419,-0.4403,-0.4376,-0.437,-0.4363,-0.4308,-0.432,-0.4303,-0.427,-0.4249,-0.4242,-0.4236,-0.4215,-0.4208,-0.4299,-0.4298,-0.4298,0,-0.4429,-0.4406,-0.4421,-0.4401,-0.4394,-0.4417,-0.4392,-0.4388,-0.4378,-0.4373,-0.4387,-0.4354,-0.435,-0.4314,-0.4301,-0.4295,-0.4287,-0.4303,-0.4243,-0.4237,-0.4231,-0.4211,-0.4203,-0.4296,-0.4297,-0.4297,-0.4297,0,-0.4368,-0.4352,-0.4333,-0.4326,-0.4317,-0.4294,-0.4304,-0.4293,-0.4303,-0.4306,-0.4278,-0.4275,-0.426,-0.4253,-0.4261,-0.4217,-0.4225,-0.4241,-0.4266,-0.4221,-0.4202,-0.4194,-0.4293,-0.4294,-0.4295,-0.4295,0,0,-0.4291,-0.4293,-0.4286,-0.4282,-0.428,-0.4267,-0.4245,-0.4232,-0.4222,-0.4215,-0.4195,-0.4172,-0.4187,-0.4179,-0.4187,-0.4169,-0.4124,-0.4187,-0.4186,-0.4173,-0.4073,-0.406,-0.4051,-0.4133,-0.4131,-0.413,-0.4073,0,-0.4238,-0.4202,-0.4215,-0.4177,-0.4162,-0.4183,-0.4164,-0.4159,-0.4162,-0.4147,-0.415,-0.4132,-0.4154,-0.4149,-0.4132,-0.4133,-0.4103,-0.4137,-0.4112,-0.4111,-0.4112,-0.4042,-0.4028,-0.3975,-0.4066,-0.4065,-0.4064,0,-0.4172,-0.4164,-0.4125,-0.4125,-0.4119,-0.4101,-0.409,-0.4077,-0.4072,-0.4075,-0.4067,-0.4079,-0.4055,-0.4081,-0.4048,-0.4071,-0.4061,-0.406,-0.4058,-0.4054,-0.4084,-0.4034,-0.3958,-0.3949,-0.4053,-0.4054,-0.4055,0,-0.4117,-0.4097,-0.4071,-0.4068,-0.4068,-0.4054,-0.4053,-0.405,-0.4041,-0.4031,-0.4025,-0.4012,-0.4004,-0.3992,-0.4,-0.4019,-0.3964,-0.3991,-0.3964,-0.3963,-0.395,-0.395,-0.3869,-0.3947,-0.3947,-0.3947,-0.3947,0,-0.4056,-0.4031,-0.4047,-0.403,-0.4002,-0.4017,-0.3988,-0.3989,-0.3986,-0.3969,-0.3987,-0.397,-0.3981,-0.3965,-0.397,-0.3941,-0.3937,-0.3937,-0.3939,-0.3935,-0.3934,-0.3927,-0.393,-0.3945,-0.3945,-0.3946,-0.3946,0,-0.399,-0.4,-0.3973,-0.3975,-0.3975,-0.3954,-0.3956,-0.394,-0.3945,-0.3923,-0.3918,-0.3924,-0.3906,-0.3913,-0.3892,-0.3896,-0.3858,-0.3865,-0.386,-0.3861,-0.3832,-0.3834,-0.3742,-0.373,-0.3817,-0.3816,-0.3816,0,-0.3949,-0.3931,-0.3932,-0.3923,-0.3921,-0.3906,-0.3898,-0.3911,-0.3901,-0.3894,-0.3878,-0.3862,-0.3849,-0.3818,-0.382,-0.3804,-0.3809,-0.3778,-0.3807,-0.3803,-0.3807,-0.3807,-0.3805,-0.3772,-0.3771,-0.377,-0.3769,0,-0.3875,-0.3881,-0.387,-0.386,-0.385,-0.3842,-0.3835,-0.3826,-0.3839,-0.3827,-0.3809,-0.38,-0.378,-0.3763,-0.3749,-0.3746,-0.3758,-0.3761,-0.3753,-0.3748,-0.3745,-0.3745,-0.3842,-0.3762,-0.3763,-0.3763,-0.3764,-0.3764,-0.382,-0.3804,-0.3802,-0.3789,-0.3786,-0.3779,-0.3764,-0.3767,-0.3754,-0.374,-0.3748,-0.3727,-0.3721,-0.3704,-0.3699,-0.3682,-0.3693,-0.3683,-0.368,-0.3676,-0.3672,-0.375,-0.3679,-0.3679,-0.368,-0.368,-0.368,0,-0.3746,-0.3746,-0.3733,-0.3724,-0.3713,-0.3729,-0.3723,-0.3711,-0.3693,-0.3688,-0.3676,-0.3655,-0.3638,-0.3639,-0.3623,-0.3608,-0.3614,-0.3604,-0.3604,-0.3602,-0.3663,-0.3671,-0.3599,-0.3599,-0.3599,-0.3599,-0.3599,-0.36,-0.3706,-0.368,-0.3685,-0.3657,-0.3657,-0.3638,-0.3633,-0.3626,-0.3622,-0.3599,-0.3586,-0.3587,-0.3583,-0.3567,-0.3552,-0.3552,-0.3545,-0.3532,-0.3534,-0.359,-0.3598,-0.3606,-0.3613,-0.3531,-0.353,-0.3475,-0.3474,-0.3474]},{"header":{"parameterUnit":"m.s-1","parameterCategory":1,"la1":30.2991,"la2":30.254,"lo1":-89.0895,"lo2":-89.0444,"dy":0.0017,"dx":0.0017,"nx":28,"ny":28,"refTime":"2026-01-02T09:00:00:Z","depth":0,"parameterNumber":3,"parameterNumberName":"V-component_of_WINDS"},"data":[0,0,0,0,0,0,0,0,0,0,0,0,0,0,0,0,0,0,0,0,0,0,0,0,0,0,0,0,0,0,0,0,0,0,0,0,0,0,0,0,0,0,0,0,0,0,0,0,0,0,0,0,0,0,0,0,0,0,4.2651,4.2651,0,4.2634,4.2634,4.2634,4.2555,4.2553,4.2551,4.2549,4.2531,4.2532,4.2533,0,0,0,0,0,0,0,0,0,0,0,0,0,4.2616,4.2617,4.2651,4.2651,4.2651,4.2634,4.2634,4.2634,4.2555,4.2553,4.255,4.2548,4.253,4.2532,4.2533,0,0,0,0,0,0,0,0,0,0,0,0,0,4.2619,4.2618,4.2651,4.2609,4.2606,4.2634,4.2634,4.2634,4.2555,4.2553,4.255,4.2547,4.253,4.2532,4.2534,4.2601,0,0,4.2539,4.254,0,0,0,0,0,0,0,0,4.2619,4.262,4.2616,4.2612,4.2608,4.2594,4.2615,4.2623,4.2556,4.2574,4.2549,4.2546,4.2554,4.2554,4.2557,4.26,4.2599,4.254,4.2541,4.2541,4.2542,0,0,0,0,0,0,0,4.2618,4.262,4.2644,4.2616,4.2611,4.2592,4.2589,4.2616,4.258,4.2573,4.2567,4.2566,4.2551,4.2555,4.2556,4.2599,4.2539,4.2541,4.2542,4.2543,4.2701,4.2704,0,0,0,0,0,0,4.2624,4.2621,4.2645,4.2644,4.2607,4.2595,4.2592,4.2601,4.2579,4.2573,4.2568,4.2562,4.2553,4.2553,4.2555,4.2635,4.2541,4.2543,4.2544,4.2698,4.2702,4.2705,0,0,0,0,0,0,4.2624,4.2627,4.2645,4.2631,4.2632,4.2598,4.2609,4.2602,4.2606,4.2576,4.2569,4.2579,4.2551,4.2552,4.2591,4.2633,4.2544,4.2546,4.2694,4.2699,4.2703,4.2795,0,0,0,0,0,0,4.2623,4.2627,4.2652,4.2632,4.2633,4.2682,4.2612,4.2604,4.2609,4.2601,4.2584,4.2579,4.2549,4.2589,4.2593,4.2634,4.2547,4.269,4.2696,4.2702,4.2788,4.2803,4.2815,0,0,0,0,0,4.2622,4.2678,4.2654,4.2657,4.2663,4.2685,4.2685,4.265,4.2613,4.2638,4.262,4.2579,4.2628,4.2593,4.2597,4.264,4.2688,4.2695,4.2701,4.2783,4.28,4.2814,0,0,0,0,0,0,4.2703,4.2674,4.2647,4.2698,4.2695,4.2671,4.2702,4.2669,4.2675,4.2668,4.2623,4.262,4.2667,4.2656,4.2619,4.2706,4.2651,4.2659,4.2711,4.2727,4.274,4.2743,4.2549,0,0,0,0,0,4.2727,4.2747,4.272,4.2767,4.2767,4.2735,4.2743,4.2717,4.2711,4.2709,4.2693,4.269,4.2704,4.2715,4.2726,4.2786,4.2783,4.2817,4.2831,4.2841,4.285,4.2885,4.2901,4.2728,4.2728,4.2727,0,0,4.2776,4.2763,4.2778,4.2784,4.2778,4.2801,4.2734,4.276,4.2777,4.2713,4.275,4.2738,4.2731,4.2782,4.2804,4.2775,4.2897,4.285,4.2859,4.2862,4.2894,4.291,4.2925,4.2732,4.2732,4.2731,0,0,4.2878,4.2868,4.2909,4.2905,4.2898,4.2877,4.2887,4.2869,4.2859,4.2896,4.2849,4.2868,4.2893,4.2892,4.2894,4.2999,4.2963,4.3003,4.3073,4.3107,4.3121,4.3133,4.3174,4.3189,4.3011,4.3011,4.3012,0,4.294,4.2972,4.2934,4.2964,4.2969,4.2913,4.2955,4.2953,4.2949,4.2955,4.2923,4.2956,4.2947,4.2998,4.3025,4.3027,4.3039,4.3006,4.3122,4.3134,4.3144,4.3183,4.3198,4.3017,4.3016,4.3016,4.3015,0,4.3051,4.3075,4.3108,4.3109,4.3117,4.3153,4.3121,4.3134,4.3107,4.309,4.3129,4.3117,4.3127,4.3136,4.3109,4.3185,4.3168,4.313,4.3074,4.3167,4.3203,4.3217,4.3024,4.3022,4.3021,4.3019,0,0,4.3203,4.3184,4.3197,4.3199,4.3187,4.3205,4.3239,4.325,4.3264,4.3263,4.3293,4.3317,4.3282,4.3285,4.3257,4.3287,4.3376,4.3246,4.3245,4.3274,4.3463,4.3495,4.3513,4.3351,4.3354,4.3356,4.3465,0,4.3304,4.3362,4.333,4.3393,4.3416,4.3364,4.3394,4.3391,4.3376,4.3394,4.3376,4.3396,4.3347,4.3349,4.3376,4.336,4.3414,4.3351,4.338,4.3382,4.3387,4.3531,4.3563,4.3667,4.3479,4.3481,4.3483,0,4.3429,4.3437,4.3503,4.3491,4.35,4.3528,4.3537,4.3553,4.355,4.3537,4.3542,4.3508,4.3542,4.3486,4.3533,4.3491,4.3501,4.3495,4.3498,4.3502,4.344,4.3542,4.3699,4.3716,4.3503,4.3502,4.35,0,4.3539,4.3565,4.3609,4.3611,4.3597,4.3619,4.3614,4.3608,4.3618,4.3625,4.3631,4.3642,4.3649,4.3659,4.363,4.359,4.3683,4.3623,4.3675,4.3677,4.3699,4.3699,4.3864,4.37,4.37,4.37,4.37,0,4.3656,4.37,4.3659,4.3686,4.3734,4.3697,4.3745,4.3734,4.373,4.3755,4.3709,4.3734,4.3693,4.3714,4.369,4.3736,4.3738,4.373,4.3724,4.3737,4.3738,4.3745,4.3738,4.3704,4.3703,4.3702,4.3702,0,4.3787,4.3761,4.3807,4.3791,4.3788,4.3825,4.3811,4.3837,4.3819,4.3852,4.3857,4.383,4.3853,4.3824,4.3843,4.3828,4.3891,4.3872,4.3893,4.3889,4.3945,4.3942,4.4122,4.4146,4.3964,4.3966,4.3967,0,4.3866,4.3898,4.3887,4.3902,4.39,4.3923,4.3934,4.3898,4.3911,4.3911,4.3938,4.3957,4.397,4.4009,4.3992,4.4007,4.399,4.4053,4.3992,4.4005,4.3996,4.3996,4.4001,4.4066,4.4068,4.407,4.4071,0,4.4009,4.3995,4.4012,4.4027,4.4041,4.405,4.4055,4.4069,4.4032,4.405,4.4073,4.4084,4.4105,4.4126,4.4137,4.4132,4.4098,4.409,4.4104,4.4118,4.4131,4.4129,4.3931,4.4087,4.4085,4.4084,4.4083,4.4083,4.4118,4.4147,4.4145,4.4166,4.4167,4.4174,4.4199,4.4185,4.4204,4.422,4.4197,4.4228,4.4226,4.4237,4.4237,4.4261,4.4234,4.4253,4.4259,4.4265,4.4275,4.4125,4.4262,4.4262,4.4262,4.4261,4.4261,0,4.4262,4.4259,4.4279,4.429,4.4308,4.4273,4.4278,4.4296,4.4323,4.4325,4.434,4.4369,4.439,4.4374,4.4392,4.4414,4.4399,4.442,4.442,4.442,4.4296,4.4284,4.4433,4.4433,4.4433,4.4433,4.4433,4.4433,4.434,4.4387,4.4374,4.4422,4.4418,4.4449,4.4455,4.4462,4.4464,4.4499,4.4516,4.4506,4.4502,4.4519,4.4537,4.4532,4.4542,4.4571,4.456,4.4445,4.4428,4.4412,4.4401,4.4572,4.4572,4.4683,4.4684,4.4685]}]]